Location: Mason
(37.5237°N, 89.2543°W)
Time: 08:11:10
(UTC+00:00)

Cosmos 1315 Rocket - Pass Details

Date: 24 January 2021
Orbit: 530 x 567 km, 81.2° (Epoch: 08 March)

Event Time Altitude Azimuth Distance (km) Brightness Sun altitude
Rises 12:19:44 0° 198° (SSW) 2,662 6.3 -9.5°
Reaches altitude 10° 12:21:55 10° 203° (SSW) 1,774 5.4 -9.1°
Maximum altitude 12:25:44 53° 281° (W) 653 2.8 -8.3°
Drops below altitude 10° 12:29:34 10° 359° (N) 1,784 5.2 -7.6°
Sets 12:31:46 0° 4° (N) 2,679 6.2 -7.2°
